Date_and_time,latitude,longitude,wind_speed,RelWindDirFrom,WindDirFrom,air_pressure,air_temperature,relative_humidity,Temp,platform_speed_wrt_ground,air_pressure_at_mean_sea_level,platform_orientation
2019-03-29 23:50,50.6304383333333,-96.980765,16.1,21.4,337,994.63,-2.6,39,1.74,0.0,1022.89,101.6
2019-03-30 00:00,50.6304383333333,-96.980765,15.8,24.9,327,994.71,-2.7,36,1.74,0.0,1022.98,14.5
2019-03-30 00:00,50.6304383333333,-96.980765,10.4,10.5,325,995.10,-2.7,35,1.74,0.0,1023.39,0.0
2019-03-30 00:10,50.6304383333333,-96.980765,15.0,22.3,326,994.94,-2.8,34,1.74,0.0,1023.25,0.0
2019-03-30 00:20,50.6304383333333,-96.980765,13.9,21.5,324,995.20,-3.0,35,1.74,0.0,1023.53,0.0
2019-03-30 00:30,50.6304383333333,-96.980765,14.1,19.3,338,995.50,-3.2,38,1.74,0.0,1023.85,0.0
2019-03-30 00:40,50.6304383333333,-96.9807666666667,14.7,20.8,345,995.73,-3.6,43,1.75,0.0,1024.11,0.0
2019-03-30 00:50,50.63044,-96.9807666666667,15.1,20.5,340,995.88,-3.9,42,1.75,0.0,1024.28,0.0
2019-03-30 01:00,50.63044,-96.980765,13.5,20.6,340,996.13,-4.2,44,1.75,0.0,1024.56,347.4
2019-03-30 01:10,50.63044,-96.980765,18.1,27.4,336,996.08,-4.3,44,1.76,0.0,1024.53,347.4
2019-03-30 01:20,50.63044,-96.980765,15.6,23.9,336,996.39,-4.4,45,1.75,0.0,1024.86,347.4
2019-03-30 01:30,50.6304466666667,-96.980765,12.9,20.3,339,996.64,-4.6,47,1.73,0.0,1025.12,347.4
2019-03-30 01:40,50.6304416666667,-96.98078,13.5,20.4,334,996.64,-4.6,46,1.73,0.0,1025.14,347.4
2019-03-30 01:50,50.63044,-96.98077,12.8,24.2,335,996.79,-4.6,47,1.72,0.0,1025.29,347.4
2019-03-30 02:00,50.63044,-96.980765,14.1,24.4,334,996.82,-4.7,47,1.72,0.0,1025.33,0.0
2019-03-30 02:10,50.63044,-96.980765,15.5,23.5,330,996.85,-4.7,46,1.73,0.0,1025.37,0.0
2019-03-30 02:20,50.6304416666667,-96.9807683333333,14.3,23.2,335,997.18,-4.7,47,1.73,0.0,1025.73,0.0
2019-03-30 02:30,50.6304416666667,-96.980765,13.4,20.6,340,997.36,-4.8,48,1.73,0.0,1025.94,0.0
2019-03-30 02:40,50.63045,-96.9807716666667,10.8,15.2,341,997.64,-5.0,50,1.71,0.0,1026.25,0.0
2019-03-30 02:50,50.630445,-96.980765,11.6,17.7,335,997.71,-5.0,50,1.71,0.0,1026.34,0.0
2019-03-30 03:00,50.6304466666667,-96.980765,10.2,15.7,337,997.90,-5.1,51,1.69,0.0,1026.55,38.0
2019-03-30 03:10,50.6304483333333,-96.980765,10.7,16.0,331,997.99,-5.2,51,1.69,0.0,1026.65,38.0
2019-03-30 03:20,50.6304466666667,-96.9807666666667,11.1,16.4,336,998.18,-5.3,51,1.70,0.0,1026.85,38.0
2019-03-30 03:30,50.6304316666667,-96.98077,10.0,16.3,329,998.28,-5.3,51,1.70,0.0,1026.96,38.0
2019-03-30 03:40,50.6304366666667,-96.98077,8.7,15.7,325,998.33,-5.4,51,1.68,0.0,1027.02,38.0
2019-03-30 03:50,50.63044,-96.9807666666667,8.6,11.8,324,998.42,-5.5,52,1.66,0.0,1027.12,38.0
2019-03-30 04:00,50.6304766666667,-96.9807866666667,7.7,11.8,324,998.52,-5.5,52,1.65,0.0,1027.22,335.6
2019-03-30 04:10,50.6304383333333,-96.9807683333333,7.6,12.1,318,998.59,-5.6,53,1.65,0.0,1027.30,335.6
2019-03-30 04:20,50.6304366666667,-96.9807683333333,8.1,12.3,321,998.71,-5.6,53,1.65,0.0,1027.43,335.6
2019-03-30 04:30,50.63044,-96.980765,7.4,11.5,321,998.80,-5.7,53,1.65,0.0,1027.54,335.6
2019-03-30 04:40,50.6304433333333,-96.980765,7.6,10.3,321,998.85,-5.8,54,1.65,0.0,1027.60,335.6
2019-03-30 04:50,50.630445,-96.9807666666667,8.7,13.8,318,998.82,-5.8,54,1.65,0.0,1027.57,335.6
2019-03-30 05:00,50.6304466666667,-96.9807683333333,8.9,13.2,321,998.89,-5.8,54,1.63,0.0,1027.65,38.0
2019-03-30 05:10,50.6304483333333,-96.9807683333333,8.1,11.2,322,999.00,-5.9,54,1.62,0.0,1027.77,38.0
2019-03-30 05:20,50.6304516666667,-96.9807816666667,8.3,11.0,319,999.06,-5.9,54,1.63,0.0,1027.84,38.0
2019-03-30 05:30,50.630445,-96.9807816666667,7.6,11.6,320,999.17,-6.0,54,1.63,0.0,1027.95,38.0
2019-03-30 05:40,50.6304533333333,-96.98077,6.7,8.7,317,999.22,-6.0,55,1.62,0.0,1028.02,38.0
2019-03-30 05:50,50.6304533333333,-96.9807633333333,5.5,8.7,310,999.27,-6.1,56,1.63,0.0,1028.08,38.0
2019-03-30 06:00,50.6304516666667,-96.9807633333333,5.4,7.9,312,999.29,-6.3,57,1.62,0.0,1028.11,360.0
2019-03-30 06:10,50.6304516666667,-96.980765,5.7,8.6,308,999.37,-6.4,58,1.62,0.0,1028.20,360.0
2019-03-30 06:20,50.6304516666667,-96.980765,5.8,8.0,308,999.44,-6.5,58,1.62,0.0,1028.28,360.0
2019-03-30 06:30,50.6304516666667,-96.980765,6.0,9.3,308,999.51,-6.6,59,1.62,0.0,1028.36,360.0
2019-03-30 06:40,50.6304533333333,-96.9807666666667,6.1,8.6,303,999.54,-6.7,59,1.62,0.0,1028.40,360.0
2019-03-30 06:50,50.63045,-96.9807833333333,5.0,6.9,295,999.64,-6.8,61,1.62,0.0,1028.51,360.0
2019-03-30 07:00,50.6304483333333,-96.9807783333333,5.8,8.8,294,999.62,-6.8,62,1.60,0.0,1028.49,360.0
2019-03-30 07:10,50.6304516666667,-96.980775,4.9,7.1,303,999.70,-6.9,63,1.59,0.0,1028.58,360.0
2019-03-30 07:20,50.6304533333333,-96.9807733333333,5.7,8.1,302,999.63,-7.0,63,1.59,0.0,1028.52,360.0
2019-03-30 07:30,50.6304533333333,-96.9807716666667,6.4,9.9,303,999.61,-7.0,62,1.58,0.0,1028.50,360.0
2019-03-30 07:40,50.6304516666667,-96.9807716666667,6.8,10.3,302,999.61,-7.0,62,1.58,0.0,1028.51,360.0
2019-03-30 07:50,50.6304516666667,-96.9807716666667,5.8,8.2,301,999.65,-7.1,63,1.59,0.0,1028.57,360.0
2019-03-30 08:00,50.63044,-96.9807766666667,6.4,9.1,301,999.65,-7.2,63,1.60,0.0,1028.57,228.3
2019-03-30 08:10,50.630445,-96.9807633333333,5.7,8.7,291,999.74,-7.3,63,1.58,0.0,1028.68,228.3
2019-03-30 08:20,50.63046,-96.9807716666667,6.2,8.6,290,999.85,-7.5,63,1.58,0.0,1028.81,228.3
2019-03-30 08:30,50.6304533333333,-96.980775,6.1,8.4,286,999.95,-7.6,64,1.58,0.0,1028.92,228.3
2019-03-30 08:40,50.6304466666667,-96.9807683333333,6.2,9.0,287,999.95,-7.7,64,1.58,0.0,1028.93,228.3
2019-03-30 08:50,50.630445,-96.9807683333333,5.2,7.6,287,999.99,-7.8,65,1.58,0.0,1028.98,228.3
2019-03-30 09:00,50.6304433333333,-96.9807716666667,4.8,7.0,287,1000.03,-7.8,65,1.59,0.0,1029.03,360.0
2019-03-30 09:10,50.6304433333333,-96.9807683333333,5.2,7.3,285,1000.07,-7.9,66,1.60,0.0,1029.08,360.0
2019-03-30 09:20,50.630445,-96.9807716666667,5.6,8.0,286,1000.06,-8.0,67,1.61,0.0,1029.08,360.0
2019-03-30 09:30,50.6304466666667,-96.9807716666667,5.9,9.1,290,1000.08,-8.1,67,1.59,0.0,1029.11,360.0
2019-03-30 09:40,50.63045,-96.9807733333333,5.6,8.6,293,1000.09,-8.1,67,1.56,0.0,1029.11,360.0
2019-03-30 09:50,50.63045,-96.98077,5.7,8.1,291,1000.11,-8.0,66,1.54,0.0,1029.13,360.0
2019-03-30 10:00,50.63045,-96.98077,5.6,8.1,288,1000.17,-7.9,66,1.54,0.0,1029.20,66.4
2019-03-30 10:10,50.6304483333333,-96.98077,5.7,7.8,284,1000.26,-7.9,66,1.55,0.0,1029.31,66.4
2019-03-30 10:20,50.6304483333333,-96.98077,5.8,8.4,286,1000.37,-7.9,67,1.56,0.0,1029.42,66.4
2019-03-30 10:30,50.6304483333333,-96.98077,5.5,7.5,287,1000.44,-7.9,66,1.56,0.0,1029.50,66.4
2019-03-30 10:40,50.63045,-96.9807683333333,5.4,7.9,287,1000.55,-7.9,66,1.57,0.0,1029.62,66.4
2019-03-30 10:50,50.6304483333333,-96.9807683333333,6.0,8.0,295,1000.64,-8.0,66,1.57,0.0,1029.71,66.4
2019-03-30 11:00,50.630445,-96.9807533333333,6.0,8.3,293,1000.71,-8.1,66,1.58,0.0,1029.80,90.0
2019-03-30 11:10,50.6304516666667,-96.9807416666667,6.0,8.8,293,1000.73,-8.1,66,1.57,0.0,1029.82,90.0
2019-03-30 11:20,50.630455,-96.9807533333333,5.5,8.0,289,1000.93,-8.2,66,1.54,0.0,1030.04,90.0
2019-03-30 11:30,50.6304533333333,-96.980755,5.1,6.8,289,1000.99,-8.2,66,1.53,0.0,1030.10,90.0
2019-03-30 11:40,50.6304533333333,-96.9807566666667,4.9,6.9,283,1001.00,-8.3,67,1.53,0.0,1030.11,90.0
2019-03-30 11:50,50.6304533333333,-96.9807566666667,4.7,6.4,281,1001.05,-8.5,68,1.54,0.0,1030.17,90.0
2019-03-30 12:00,50.6304533333333,-96.9807566666667,4.9,7.3,287,1001.21,-8.5,69,1.54,0.0,1030.34,36.6
2019-03-30 12:10,50.6304366666667,-96.9808116666667,5.2,7.5,288,1001.29,-8.4,68,1.53,0.0,1030.41,36.6
2019-03-30 12:20,50.630445,-96.9807733333333,5.7,8.0,288,1001.34,-8.4,67,1.51,0.0,1030.47,36.6
2019-03-30 12:30,50.6304466666667,-96.9807683333333,5.6,7.7,285,1001.42,-8.4,67,1.51,0.0,1030.55,36.6
2019-03-30 12:40,50.6304466666667,-96.9807666666667,6.1,9.7,297,1001.44,-8.2,67,1.52,0.0,1030.56,36.6
2019-03-30 12:50,50.6304483333333,-96.980765,5.7,8.6,285,1001.47,-8.1,68,1.52,0.0,1030.59,36.6
2019-03-30 13:00,50.63045,-96.980765,6.0,9.2,296,1001.50,-7.9,67,1.52,0.0,1030.61,0.0
2019-03-30 13:10,50.6304483333333,-96.9807633333333,6.1,8.3,291,1001.61,-7.8,67,1.52,0.0,1030.72,0.0
2019-03-30 13:20,50.6304483333333,-96.9807633333333,5.6,8.1,297,1001.73,-7.5,67,1.53,0.0,1030.83,0.0
2019-03-30 13:30,50.6304483333333,-96.9807666666667,6.3,9.8,303,1001.79,-7.2,65,1.53,0.0,1030.88,0.0
2019-03-30 13:40,50.6304483333333,-96.9807616666667,5.7,8.8,304,1001.86,-6.8,62,1.51,0.0,1030.95,0.0
2019-03-30 13:50,50.6304516666667,-96.9807683333333,6.0,8.9,304,1001.88,-6.5,61,1.49,0.0,1030.95,0.0
2019-03-30 14:00,50.63045,-96.9807666666667,6.0,8.3,293,1001.98,-6.2,59,1.47,0.0,1031.03,347.4
2019-03-30 14:10,50.6304516666667,-96.9807683333333,5.7,9.1,300,1002.01,-5.8,58,1.46,0.0,1031.04,347.4
2019-03-30 14:20,50.6304516666667,-96.9807683333333,6.0,8.2,290,1001.94,-5.5,55,1.46,0.0,1030.95,347.4
2019-03-30 14:30,50.6304533333333,-96.9807683333333,6.3,9.4,301,1001.92,-5.2,52,1.46,0.0,1030.90,347.4
2019-03-30 14:40,50.6304516666667,-96.9807683333333,6.4,9.5,298,1001.88,-4.8,50,1.46,0.0,1030.83,347.4
2019-03-30 14:50,50.6304516666667,-96.9807766666667,5.2,9.3,303,1001.94,-4.5,50,1.46,0.0,1030.87,347.4
2019-03-30 15:00,50.6304533333333,-96.9807833333333,6.7,9.9,290,1001.92,-4.3,48,1.46,0.0,1030.83,270.0
2019-03-30 15:10,50.630455,-96.9807783333333,6.9,9.9,291,1001.90,-4.1,48,1.46,0.0,1030.78,270.0
2019-03-30 15:20,50.630435,-96.980765,7.2,10.3,290,1001.92,-3.9,47,1.46,0.0,1030.77,270.0
2019-03-30 15:30,50.6304433333333,-96.9807716666667,6.5,10.1,298,1001.94,-3.6,47,1.44,0.0,1030.75,270.0
2019-03-30 15:40,50.6304466666667,-96.9807716666667,8.3,12.8,300,1001.78,-3.4,46,1.43,0.0,1030.57,270.0
2019-03-30 15:50,50.6304466666667,-96.9807733333333,7.2,11.4,305,1001.78,-3.3,46,1.42,0.0,1030.55,270.0
2019-03-30 16:00,50.630445,-96.9807733333333,7.9,11.3,294,1001.76,-3.1,46,1.42,0.0,1030.49,360.0
2019-03-30 16:10,50.63047,-96.980775,6.3,10.8,303,1001.85,-2.8,46,1.43,0.0,1030.55,360.0
2019-03-30 16:20,50.6304466666667,-96.9807683333333,7.0,12.5,296,1001.82,-2.6,45,1.43,0.0,1030.49,360.0
2019-03-30 16:30,50.6304516666667,-96.980765,6.1,11.1,291,1001.83,-2.5,44,1.43,0.0,1030.47,360.0
2019-03-30 16:40,50.6304516666667,-96.9807666666667,6.3,11.0,289,1001.78,-2.3,44,1.43,0.0,1030.39,360.0
2019-03-30 16:50,50.630415,-96.9807533333333,6.2,10.4,293,1001.76,-2.1,43,1.44,0.0,1030.35,360.0
2019-03-30 17:00,50.6304383333333,-96.9807533333333,4.8,9.9,311,1001.78,-1.9,43,1.45,0.0,1030.36,143.4
2019-03-30 17:10,50.6304483333333,-96.980765,6.7,10.8,276,1001.78,-1.8,43,1.45,0.0,1030.34,143.4
2019-03-30 17:20,50.6304433333333,-96.9807566666667,4.8,10.0,298,1001.73,-1.6,42,1.46,0.0,1030.26,143.4
2019-03-30 17:30,50.6304416666667,-96.9807633333333,5.4,9.9,313,1001.66,-1.3,42,1.46,0.0,1030.16,143.4
2019-03-30 17:40,50.6304416666667,-96.9807633333333,5.0,11.2,284,1001.60,-1.2,41,1.47,0.0,1030.09,143.4
2019-03-30 17:50,50.6304433333333,-96.980765,4.9,9.1,300,1001.60,-0.9,41,1.47,0.0,1030.06,143.4
2019-03-30 18:00,50.6304433333333,-96.980765,4.9,10.6,313,1001.56,-0.8,41,1.47,0.0,1030.00,130.6
2019-03-30 18:10,50.6304433333333,-96.980765,6.0,11.0,315,1001.48,-0.7,40,1.48,0.0,1029.91,130.6
2019-03-30 18:20,50.630445,-96.980765,2.6,6.6,32,1001.56,-0.5,44,1.49,0.0,1029.96,130.6
2019-03-30 18:30,50.630445,-96.9807683333333,8.6,10.3,73,1001.48,-0.8,52,1.50,0.0,1029.89,130.6
2019-03-30 18:40,50.630445,-96.9807683333333,5.9,8.8,88,1001.41,-0.3,50,1.50,0.0,1029.78,130.6
2019-03-30 18:50,50.63045,-96.980785,7.1,8.5,79,1001.26,-0.3,50,1.51,0.0,1029.62,130.6
2019-03-30 19:00,50.6304516666667,-96.9807783333333,6.1,7.3,95,1001.15,-0.3,50,1.53,0.0,1029.50,347.4
2019-03-30 19:10,50.6304416666667,-96.9807733333333,5.7,7.5,89,1001.13,0.5,48,1.53,0.0,1029.43,347.4
2019-03-30 19:20,50.6304466666667,-96.9807716666667,5.8,7.7,83,1001.09,0.8,49,1.54,0.0,1029.35,347.4
2019-03-30 19:30,50.6304466666667,-96.9807683333333,5.5,7.1,86,1001.05,1.4,47,1.56,0.0,1029.28,347.4
2019-03-30 19:40,50.630445,-96.980765,5.5,7.0,91,1000.99,1.7,47,1.57,0.0,1029.18,347.4
2019-03-30 19:50,50.6304466666667,-96.980765,6.0,7.0,102,1000.92,1.9,48,1.57,0.0,1029.09,347.4
2019-03-30 20:00,50.6304533333333,-96.98078,6.6,8.2,102,1000.79,0.6,52,1.58,0.0,1029.02,294.9
2019-03-30 20:10,50.630445,-96.9807566666667,6.3,9.4,92,1000.67,0.2,53,1.59,0.0,1028.91,294.9
2019-03-30 20:20,50.6304433333333,-96.9807666666667,6.1,8.0,92,1000.61,0.4,52,1.61,0.0,1028.85,294.9
2019-03-30 20:30,50.630445,-96.980765,6.0,7.6,111,1000.56,0.1,54,1.61,0.0,1028.79,294.9
2019-03-30 20:40,50.6304466666667,-96.9807683333333,5.7,7.0,136,1000.50,-0.9,56,1.62,0.0,1028.79,294.9
2019-03-30 20:50,50.6304466666667,-96.98077,4.3,7.6,133,1000.41,-0.6,52,1.64,0.0,1028.68,294.9
2019-03-30 21:00,50.6304333333333,-96.9807666666667,1.7,3.5,194,1000.37,-0.3,43,1.65,0.0,1028.58,142.0
2019-03-30 21:10,50.6304433333333,-96.9807683333333,2.3,8.0,103,1000.34,0.1,54,1.66,0.0,1028.51,142.0
2019-03-30 21:20,50.630445,-96.980765,1.5,7.9,118,1000.26,0.2,48,1.67,0.0,1028.39,142.0
2019-03-30 21:30,50.6304466666667,-96.9807666666667,3.7,8.9,309,1000.14,0.5,41,1.68,0.0,1028.24,142.0
2019-03-30 21:40,50.630445,-96.980765,5.8,9.5,290,1000.06,0.3,35,1.69,0.0,1028.16,142.0
2019-03-30 21:50,50.630445,-96.9807666666667,6.5,11.4,287,1000.04,0.2,35,1.70,0.0,1028.21,142.0
2019-03-30 22:00,50.630445,-96.980765,5.1,8.3,272,1000.09,0.2,35,1.71,0.0,1028.27,137.2
2019-03-30 22:10,50.6304133333333,-96.98076,4.3,9.2,284,999.99,0.3,36,1.72,0.0,1028.16,137.2
2019-03-30 22:20,50.6304366666667,-96.9807666666667,6.8,12.1,73,999.91,0.1,54,1.73,0.0,1028.11,137.2
2019-03-30 22:30,50.6304416666667,-96.9807683333333,7.9,9.7,94,999.94,-0.2,61,1.73,0.0,1028.20,137.2
2019-03-30 22:40,50.6304416666667,-96.98077,7.2,9.9,106,999.87,-0.4,63,1.74,0.0,1028.12,137.2
2019-03-30 22:50,50.6304433333333,-96.9807683333333,7.4,8.9,118,999.77,-1.0,67,1.75,0.0,1028.03,137.2
2019-03-30 23:00,50.6304416666667,-96.980765,6.7,9.0,111,999.72,-1.1,66,1.76,0.0,1027.97,130.6
2019-03-30 23:10,50.6304416666667,-96.980765,5.2,7.2,121,999.69,-1.1,67,1.77,0.0,1027.93,130.6
2019-03-30 23:20,50.6304416666667,-96.9807666666667,5.8,7.8,140,999.61,-1.8,69,1.78,0.0,1027.88,130.6
2019-03-30 23:30,50.6304433333333,-96.980765,6.2,7.2,139,999.49,-1.7,68,1.80,0.0,1027.75,130.6
